WZZ9GQ LICA-LBSF

Flight info

Callsign WZZ9GQ
Flight time 1h 7m
Altitude 37000
Route CRN DCT GOKEL DCT DOBAR DCT NASKO P127 VELBA T343 MOREK
Aircraft A321/M-SDE3FGHIRWY/LB1

Departure

Time 2026-05-06 11:58
Airport Lamezia Terme Sant'Eufemia International Airport (LICA)

Arrival

Time 2026-05-06 13:06
Airport Sofia Airport (LBSF)
Time Latitude Longitude Altitude Speed Heading
2026-05-06 11:34 38.90889 16.24380 60 ft 0 kts 51°
2026-05-06 11:51 38.90890 16.24382 60 ft 1 kts 52°
2026-05-06 11:51 38.90891 16.24387 60 ft 1 kts 83°
2026-05-06 11:52 38.90888 16.24392 60 ft 1 kts 138°
2026-05-06 11:52 38.90875 16.24389 60 ft 3 kts 193°
2026-05-06 11:52 38.90851 16.24382 60 ft 4 kts 194°
2026-05-06 11:52 38.90828 16.24383 60 ft 3 kts 142°
2026-05-06 11:53 38.90815 16.24411 60 ft 5 kts 103°
2026-05-06 11:53 38.90811 16.24459 60 ft 6 kts 98°
2026-05-06 11:53 38.90804 16.24522 60 ft 8 kts 98°
2026-05-06 11:53 38.90795 16.24595 60 ft 9 kts 98°
2026-05-06 11:54 38.90785 16.24680 60 ft 10 kts 98°
2026-05-06 11:54 38.90774 16.24778 60 ft 12 kts 98°
2026-05-06 11:54 38.90758 16.24892 60 ft 14 kts 119°
2026-05-06 11:54 38.90681 16.24976 60 ft 16 kts 120°
2026-05-06 11:55 38.90661 16.25129 60 ft 19 kts 98°
2026-05-06 11:55 38.90640 16.25313 60 ft 23 kts 98°
2026-05-06 11:55 38.90614 16.25527 60 ft 26 kts 99°
2026-05-06 11:55 38.90584 16.25769 60 ft 29 kts 99°
2026-05-06 11:56 38.90556 16.26008 60 ft 15 kts 98°
2026-05-06 11:56 38.90540 16.26156 60 ft 19 kts 98°
2026-05-06 11:56 38.90474 16.26299 60 ft 20 kts 173°
2026-05-06 11:56 38.90355 16.26287 60 ft 16 kts 192°
2026-05-06 11:57 38.90308 16.26223 60 ft 2 kts 283°
2026-05-06 11:57 38.90309 16.26218 60 ft 0 kts 276°
2026-05-06 11:57 38.90309 16.26217 60 ft 1 kts 276°
2026-05-06 11:57 38.90316 16.26139 60 ft 24 kts 278°
2026-05-06 11:58 38.90383 16.25589 61 ft 100 kts 279°
2026-05-06 11:58 38.90522 16.24409 61 ft 161 kts 277°
2026-05-06 11:58 38.90707 16.22898 563 ft 168 kts 278°
2026-05-06 11:58 38.90881 16.21401 1258 ft 170 kts 277°
2026-05-06 11:59 38.91043 16.19917 1956 ft 173 kts 276°
2026-05-06 11:59 38.91159 16.18840 2189 ft 186 kts 276°
2026-05-06 11:59 38.91433 16.16547 2755 ft 206 kts 277°
2026-05-06 11:59 38.91393 16.14670 3124 ft 221 kts 254°
2026-05-06 12:00 38.90601 16.12843 3290 ft 247 kts 225°
2026-05-06 12:00 38.89660 16.11942 3618 ft 256 kts 206°
2026-05-06 12:00 38.87922 16.11394 4372 ft 257 kts 188°
2026-05-06 12:00 38.86125 16.11120 5119 ft 263 kts 187°
2026-05-06 12:01 38.84312 16.10857 5839 ft 268 kts 187°
2026-05-06 12:01 38.82458 16.10554 6623 ft 270 kts 186°
2026-05-06 12:01 38.80577 16.10790 7289 ft 278 kts 160°
2026-05-06 12:01 38.78978 16.12182 7975 ft 284 kts 132°
2026-05-06 12:02 38.78054 16.14437 8639 ft 291 kts 105°
2026-05-06 12:02 38.77747 16.17019 9335 ft 295 kts 97°
2026-05-06 12:02 38.77548 16.19652 10017 ft 299 kts 97°
2026-05-06 12:02 38.77317 16.22317 10614 ft 306 kts 98°
2026-05-06 12:03 38.77010 16.25090 10927 ft 323 kts 100°
2026-05-06 12:03 38.76647 16.28027 11145 ft 343 kts 100°
2026-05-06 12:03 38.76261 16.31126 11411 ft 360 kts 99°
2026-05-06 12:03 38.75972 16.34371 11744 ft 374 kts 90°
2026-05-06 12:04 38.76447 16.37659 12206 ft 379 kts 66°
2026-05-06 12:04 38.77866 16.40464 12908 ft 374 kts 46°
2026-05-06 12:04 38.79669 16.42864 13591 ft 375 kts 42°
2026-05-06 12:04 38.81558 16.45213 14085 ft 381 kts 42°
2026-05-06 12:05 38.83449 16.47619 14681 ft 384 kts 43°
2026-05-06 12:05 38.85302 16.50110 15252 ft 388 kts 45°
2026-05-06 12:05 38.87132 16.52671 15824 ft 391 kts 46°
2026-05-06 12:05 38.88963 16.55266 16372 ft 394 kts 45°
2026-05-06 12:06 38.90820 16.57867 16908 ft 397 kts 45°
2026-05-06 12:06 38.92710 16.60472 17432 ft 400 kts 45°
2026-05-06 12:06 38.94619 16.63083 17942 ft 403 kts 45°
2026-05-06 12:06 38.96541 16.65717 18439 ft 406 kts 45°
2026-05-06 12:07 38.98472 16.68381 18930 ft 409 kts 45°
2026-05-06 12:07 39.00409 16.71068 19405 ft 412 kts 45°
2026-05-06 12:07 39.02360 16.73776 19875 ft 414 kts 45°
2026-05-06 12:07 39.04328 16.76504 20334 ft 417 kts 45°
2026-05-06 12:08 39.06304 16.79243 20796 ft 419 kts 45°
2026-05-06 12:08 39.08297 16.82007 21214 ft 423 kts 45°
2026-05-06 12:08 39.10305 16.84796 21609 ft 426 kts 45°
2026-05-06 12:08 39.12325 16.87606 22023 ft 429 kts 45°
2026-05-06 12:09 39.14354 16.90432 22432 ft 431 kts 45°
2026-05-06 12:09 39.16398 16.93280 22836 ft 434 kts 45°
2026-05-06 12:09 39.18453 16.96146 23229 ft 437 kts 45°
2026-05-06 12:09 39.20493 16.98992 23615 ft 439 kts 45°
2026-05-06 12:10 39.22595 17.01929 23992 ft 441 kts 45°
2026-05-06 12:10 39.24682 17.04847 24357 ft 443 kts 45°
2026-05-06 12:10 39.26749 17.07738 24717 ft 445 kts 45°
2026-05-06 12:10 39.28883 17.10728 25081 ft 447 kts 45°
2026-05-06 12:11 39.30993 17.13688 25432 ft 449 kts 46°
2026-05-06 12:11 39.33084 17.16627 25753 ft 452 kts 45°
2026-05-06 12:11 39.35215 17.19622 26076 ft 454 kts 45°
2026-05-06 12:11 39.37353 17.22627 26407 ft 455 kts 45°
2026-05-06 12:12 39.39501 17.25649 26726 ft 457 kts 45°
2026-05-06 12:12 39.41658 17.28687 27035 ft 459 kts 45°
2026-05-06 12:12 39.43821 17.31738 27291 ft 462 kts 46°
2026-05-06 12:12 39.46002 17.34816 27542 ft 465 kts 46°
2026-05-06 12:13 39.48188 17.37909 27825 ft 467 kts 46°
2026-05-06 12:13 39.50385 17.41019 28108 ft 468 kts 46°
2026-05-06 12:13 39.52587 17.44136 28391 ft 470 kts 46°
2026-05-06 12:13 39.54798 17.47268 28657 ft 472 kts 46°
2026-05-06 12:14 39.57019 17.50418 28913 ft 474 kts 46°
2026-05-06 12:14 39.59244 17.53579 29173 ft 476 kts 46°
2026-05-06 12:14 39.61476 17.56756 29432 ft 477 kts 46°
2026-05-06 12:14 39.63709 17.59939 29701 ft 478 kts 46°
2026-05-06 12:15 39.65944 17.63126 30036 ft 477 kts 46°
2026-05-06 12:15 39.68176 17.66310 30326 ft 477 kts 46°
2026-05-06 12:15 39.70403 17.69487 30650 ft 475 kts 46°
2026-05-06 12:15 39.72628 17.72664 30955 ft 475 kts 46°
2026-05-06 12:16 39.74843 17.75833 31268 ft 474 kts 46°
2026-05-06 12:16 39.77054 17.79001 31568 ft 473 kts 46°
2026-05-06 12:16 39.79262 17.82166 31844 ft 472 kts 46°
2026-05-06 12:16 39.81467 17.85333 32109 ft 472 kts 46°
2026-05-06 12:17 39.83674 17.88501 32290 ft 474 kts 47°
2026-05-06 12:17 39.85900 17.91701 32384 ft 478 kts 47°
2026-05-06 12:17 39.88124 17.94904 32727 ft 475 kts 47°
2026-05-06 12:17 39.90331 17.98088 33048 ft 473 kts 47°
2026-05-06 12:18 39.92536 18.01273 33267 ft 473 kts 47°
2026-05-06 12:18 39.94739 18.04457 33530 ft 473 kts 47°
2026-05-06 12:18 39.96940 18.07638 33779 ft 472 kts 47°
2026-05-06 12:18 39.99137 18.10815 34020 ft 471 kts 47°
2026-05-06 12:19 40.01328 18.13988 34256 ft 471 kts 47°
2026-05-06 12:19 40.03519 18.17166 34476 ft 470 kts 47°
2026-05-06 12:19 40.05703 18.20339 34701 ft 470 kts 47°
2026-05-06 12:19 40.07886 18.23511 34911 ft 469 kts 47°
2026-05-06 12:20 40.10067 18.26684 35092 ft 469 kts 47°
2026-05-06 12:20 40.12242 18.29851 35094 ft 468 kts 47°
2026-05-06 12:20 40.16587 18.36189 35088 ft 468 kts 47°
2026-05-06 12:21 40.20927 18.42530 35093 ft 468 kts 47°
2026-05-06 12:21 40.25268 18.48889 35092 ft 468 kts 47°
2026-05-06 12:22 40.29603 18.55251 35090 ft 468 kts 47°
2026-05-06 12:22 40.33931 18.61616 35099 ft 468 kts 47°
2026-05-06 12:23 40.38254 18.67988 35094 ft 467 kts 47°
2026-05-06 12:23 40.42569 18.74364 35075 ft 467 kts 46°
2026-05-06 12:24 40.46884 18.80749 35039 ft 468 kts 46°
2026-05-06 12:24 40.51196 18.87144 35034 ft 467 kts 46°
2026-05-06 12:25 40.55501 18.93542 35038 ft 467 kts 46°
2026-05-06 12:25 40.59763 18.99989 35037 ft 468 kts 51°
2026-05-06 12:26 40.63448 19.07066 35050 ft 470 kts 55°
2026-05-06 12:26 40.67005 19.14300 35058 ft 471 kts 55°
2026-05-06 12:27 40.70615 19.21527 35063 ft 473 kts 54°
2026-05-06 12:27 40.74256 19.28765 35098 ft 474 kts 55°
2026-05-06 12:28 40.77866 19.36032 35154 ft 473 kts 55°
2026-05-06 12:28 40.81472 19.43299 35150 ft 473 kts 55°
2026-05-06 12:29 40.85076 19.50561 35144 ft 472 kts 55°
2026-05-06 12:29 40.88670 19.57824 35125 ft 472 kts 55°
2026-05-06 12:30 40.92254 19.65090 35084 ft 472 kts 55°
2026-05-06 12:30 40.95832 19.72360 35069 ft 471 kts 55°
2026-05-06 12:31 40.99407 19.79639 35067 ft 471 kts 55°
2026-05-06 12:31 41.02978 19.86925 35067 ft 472 kts 55°
2026-05-06 12:32 41.06546 19.94229 35077 ft 472 kts 55°
2026-05-06 12:32 41.10110 20.01532 35085 ft 472 kts 55°
2026-05-06 12:33 41.13669 20.08850 35108 ft 472 kts 55°
2026-05-06 12:33 41.17216 20.16163 35158 ft 470 kts 55°
2026-05-06 12:34 41.20755 20.23474 35126 ft 471 kts 55°
2026-05-06 12:34 41.24289 20.30789 35096 ft 471 kts 55°
2026-05-06 12:35 41.27819 20.38113 35073 ft 471 kts 55°
2026-05-06 12:35 41.31344 20.45444 35067 ft 470 kts 55°
2026-05-06 12:36 41.34372 20.53161 35072 ft 472 kts 67°
2026-05-06 12:36 41.36640 20.61377 35062 ft 474 kts 69°
2026-05-06 12:37 41.38853 20.69634 35072 ft 473 kts 68°
2026-05-06 12:37 41.41160 20.77839 35092 ft 473 kts 67°
2026-05-06 12:38 41.43446 20.86048 35104 ft 472 kts 68°
2026-05-06 12:38 41.45690 20.94277 35115 ft 472 kts 68°
2026-05-06 12:39 41.47943 21.02486 35124 ft 471 kts 68°
2026-05-06 12:39 41.50197 21.10700 35088 ft 471 kts 68°
2026-05-06 12:40 41.52430 21.18924 35055 ft 471 kts 68°
2026-05-06 12:40 41.54660 21.27138 35056 ft 470 kts 67°
2026-05-06 12:41 41.56884 21.35352 35042 ft 470 kts 67°
2026-05-06 12:41 41.59098 21.43559 35042 ft 469 kts 67°
2026-05-06 12:42 41.61301 21.51756 35042 ft 469 kts 67°
2026-05-06 12:42 41.63495 21.59954 35034 ft 468 kts 67°
2026-05-06 12:43 41.65318 21.66768 35009 ft 468 kts 67°
2026-05-06 12:43 41.67501 21.74961 35029 ft 467 kts 67°
2026-05-06 12:44 41.69675 21.83159 35012 ft 467 kts 67°
2026-05-06 12:44 41.71844 21.91356 35012 ft 467 kts 67°
2026-05-06 12:45 41.74004 21.99549 35014 ft 467 kts 67°
2026-05-06 12:46 41.77231 22.11840 35012 ft 466 kts 67°
2026-05-06 12:46 41.79349 22.20057 34993 ft 467 kts 68°
2026-05-06 12:47 41.81451 22.28284 34999 ft 466 kts 68°
2026-05-06 12:47 41.83540 22.36429 34527 ft 458 kts 68°
2026-05-06 12:47 41.84576 22.40471 33749 ft 461 kts 68°
2026-05-06 12:48 41.85626 22.44579 32655 ft 471 kts 68°
2026-05-06 12:48 41.86704 22.48802 31348 ft 485 kts 68°
2026-05-06 12:48 41.87804 22.53131 30268 ft 493 kts 68°
2026-05-06 12:48 41.88905 22.57490 29385 ft 494 kts 68°
2026-05-06 12:49 41.90008 22.61865 28420 ft 496 kts 68°
2026-05-06 12:49 41.91117 22.66257 27531 ft 497 kts 68°
2026-05-06 12:49 41.92219 22.70630 26902 ft 491 kts 68°
2026-05-06 12:49 41.93306 22.74951 26266 ft 485 kts 68°
2026-05-06 12:50 41.94372 22.79198 25847 ft 474 kts 68°
2026-05-06 12:50 41.95415 22.83359 25259 ft 467 kts 68°
2026-05-06 12:50 41.96617 22.87367 24229 ft 459 kts 59°
2026-05-06 12:50 41.98379 22.90890 23067 ft 449 kts 46°
2026-05-06 12:51 42.00452 22.93939 22336 ft 434 kts 43°
2026-05-06 12:51 42.02488 22.96833 21753 ft 418 kts 43°
2026-05-06 12:51 42.04493 22.99637 21065 ft 419 kts 43°
2026-05-06 12:51 42.06548 23.02453 20628 ft 423 kts 44°
2026-05-06 12:52 42.08621 23.05287 20398 ft 427 kts 44°
2026-05-06 12:52 42.10709 23.08159 20151 ft 431 kts 44°
2026-05-06 12:52 42.12796 23.11051 19900 ft 430 kts 44°
2026-05-06 12:52 42.14870 23.13941 19657 ft 428 kts 44°
2026-05-06 12:53 42.16908 23.16780 19413 ft 426 kts 44°
2026-05-06 12:53 42.18969 23.19648 19164 ft 425 kts 44°
2026-05-06 12:53 42.21016 23.22487 18896 ft 418 kts 44°
2026-05-06 12:53 42.23021 23.25273 18413 ft 410 kts 44°
2026-05-06 12:54 42.25002 23.28036 17602 ft 410 kts 44°
2026-05-06 12:54 42.27140 23.30581 16806 ft 407 kts 37°
2026-05-06 12:54 42.29349 23.32904 15886 ft 399 kts 35°
2026-05-06 12:54 42.31557 23.35136 14825 ft 394 kts 35°
2026-05-06 12:55 42.33742 23.37342 13780 ft 390 kts 36°
2026-05-06 12:55 42.35886 23.39561 12700 ft 387 kts 38°
2026-05-06 12:55 42.37804 23.42094 11708 ft 385 kts 47°
2026-05-06 12:55 42.39549 23.44814 11129 ft 379 kts 50°
2026-05-06 12:56 42.41207 23.47527 10650 ft 370 kts 50°
2026-05-06 12:56 42.42825 23.50181 10309 ft 359 kts 50°
2026-05-06 12:56 42.44393 23.52705 10180 ft 342 kts 50°
2026-05-06 12:56 42.45901 23.55086 10054 ft 326 kts 49°
2026-05-06 12:57 42.47353 23.57360 9913 ft 312 kts 49°
2026-05-06 12:57 42.48740 23.59536 9786 ft 299 kts 50°
2026-05-06 12:57 42.50068 23.61635 9545 ft 291 kts 50°
2026-05-06 12:57 42.51382 23.63721 9044 ft 293 kts 50°
2026-05-06 12:58 42.52706 23.65841 8517 ft 296 kts 50°
2026-05-06 12:58 42.54040 23.67952 8176 ft 292 kts 49°
2026-05-06 12:58 42.55346 23.70007 8015 ft 282 kts 49°
2026-05-06 12:58 42.56585 23.71968 7984 ft 267 kts 49°
2026-05-06 12:59 42.57768 23.73831 7912 ft 255 kts 49°
2026-05-06 12:59 42.59058 23.75398 7874 ft 247 kts 27°
2026-05-06 12:59 42.60681 23.76101 7746 ft 246 kts 11°
2026-05-06 12:59 42.62381 23.76505 7325 ft 250 kts 11°
2026-05-06 13:00 42.64087 23.76943 6980 ft 249 kts 10°
2026-05-06 13:00 42.65781 23.76903 6718 ft 243 kts 345°
2026-05-06 13:00 42.67191 23.75753 6469 ft 236 kts 311°
2026-05-06 13:00 42.67843 23.73796 6284 ft 226 kts 280°
2026-05-06 13:01 42.68000 23.71683 5974 ft 223 kts 273°
2026-05-06 13:01 42.68068 23.69635 5880 ft 207 kts 272°
2026-05-06 13:01 42.68115 23.67719 5610 ft 201 kts 272°
2026-05-06 13:01 42.68192 23.65837 5268 ft 199 kts 274°
2026-05-06 13:02 42.68304 23.63975 4908 ft 198 kts 275°
2026-05-06 13:02 42.68433 23.62111 4514 ft 198 kts 276°
2026-05-06 13:02 42.68572 23.60237 4100 ft 200 kts 276°
2026-05-06 13:02 42.68681 23.58387 3770 ft 191 kts 274°
2026-05-06 13:03 42.68770 23.56664 3640 ft 173 kts 274°
2026-05-06 13:03 42.68856 23.55032 3421 ft 172 kts 274°
2026-05-06 13:03 42.68945 23.53433 3203 ft 168 kts 274°
2026-05-06 13:03 42.69032 23.51853 2973 ft 166 kts 275°
2026-05-06 13:04 42.69124 23.50298 2741 ft 164 kts 275°
2026-05-06 13:04 42.69215 23.48766 2508 ft 161 kts 276°
2026-05-06 13:04 42.69309 23.47268 2300 ft 156 kts 276°
2026-05-06 13:04 42.69391 23.45800 2058 ft 155 kts 276°
2026-05-06 13:05 42.69483 23.44370 1856 ft 153 kts 276°
2026-05-06 13:05 42.69573 23.42952 1758 ft 142 kts 275°
2026-05-06 13:05 42.69641 23.41844 1757 ft 92 kts 275°
2026-05-06 13:05 42.69680 23.41142 1757 ft 65 kts 269°
2026-05-06 13:06 42.69603 23.40709 1757 ft 27 kts 246°
2026-05-06 13:06 42.69544 23.40530 1757 ft 11 kts 235°
2026-05-06 13:06 42.69473 23.40472 1757 ft 14 kts 196°
2026-05-06 13:06 42.69371 23.40429 1757 ft 17 kts 197°
2026-05-06 13:07 42.69249 23.40377 1757 ft 14 kts 198°
2026-05-06 13:07 42.69158 23.40331 1757 ft 5 kts 231°
2026-05-06 13:07 42.69163 23.40273 1757 ft 8 kts 286°
2026-05-06 13:07 42.69143 23.40216 1757 ft 9 kts 203°
2026-05-06 13:08 42.69104 23.40200 1757 ft 0 kts 196°
2026-05-06 13:08 42.69104 23.40199 1757 ft 0 kts 196°